Cleveland Burke, OH

3:27 PM EDT on June 23, 2017 (GMT -0400)
Burke Lakefront

Weather History for KBKL - February, 2014

Change the Weather History Date:

Tuesday, February 11, 2014

  Actual Average Record
Temperature  
Mean Temperature 9 °F -  
Max Temperature 15 °F 36 °F 71 °F (1999)
Min Temperature 3 °F 24 °F 3 °F (2014)
Degree Days  
Heating Degree Days 56    
Moisture  
Dew Point 6 °F    
Average Humidity 81    
Maximum Humidity 91    
Minimum Humidity 73    
Precipitation  
Precipitation 0.00 in - - ()
Sea Level Pressure  
Sea Level Pressure 30.45 in    
Wind  
Wind Speed 7 mph (WSW)    
Max Wind Speed 12 mph    
Max Gust Speed -    
Visibility 6 miles    
Events Snow    
Averages and records for this station are not official NWS values.
T = Trace of Precipitation, MM = Missing Value Source: NWS Daily Summary

Daily Weather History Graph

Daily Weather History Graph

Search for Another Location

Airport or City:

Trip Planner

Search our weather history database for the weather conditions in past years. The results will help you decide how hot, cold, wet, or windy it might be!

Date:

Astronomy

Feb. 11, 2014 Rise Set
Actual Time 7:27 AM EST 5:55 PM EST
Civil Twilight 6:58 AM EST 6:24 PM EST
Nautical Twilight 6:25 AM EST 6:56 PM EST
Astronomical Twilight 5:53 AM EST 7:28 PM EST
Moon 3:13 PM EST (2/11) 5:04 AM EST (2/11)
Length of Visible Light 11h 25m
Length of Day
10h 28m
Waxing Gibbous, 90% of the Moon is Illuminated
Feb 11
Waxing Gibbous
Feb 14
Full
Feb 22
Last Quarter
Mar 1
New
Mar 8
First Quarter

Hourly Weather History & Observations

Time (EST) Temp. Windchill Dew Point Humidity Pressure Visibility Wind Dir Wind Speed Gust Speed Precip Events Conditions
12:53 AM 12.0 °F 0.5 °F 5.0 °F 73% 30.38 in 10.0 mi SW 8.1 mph - N/A   Mostly Cloudy
1:09 AM 12.2 °F 1.7 °F 5.0 °F 73% 30.35 in 10.0 mi SSW 6.9 mph - N/A   Overcast
1:23 AM 12.2 °F 2.9 °F 5.0 °F 73% 30.34 in 10.0 mi SW 5.8 mph - N/A   Overcast
1:53 AM 12.0 °F 1.5 °F 5.0 °F 73% 30.39 in 9.0 mi SW 6.9 mph - N/A   Overcast
2:53 AM 12.0 °F -0.4 °F 6.1 °F 77% 30.40 in 8.0 mi WSW 9.2 mph - 0.00 in   Overcast
3:37 AM 12.2 °F 1.7 °F 6.8 °F 79% 30.36 in 8.0 mi SW 6.9 mph - 0.00 in   Overcast
3:53 AM 12.0 °F 2.7 °F 6.1 °F 77% 30.39 in 7.0 mi SW 5.8 mph - 0.00 in Snow Light Snow
4:43 AM 10.4 °F -1.5 °F 5.0 °F 79% 30.36 in 5.0 mi SW 8.1 mph - 0.00 in Snow Light Snow
4:53 AM 10.0 °F -1.9 °F 5.0 °F 80% 30.40 in 5.0 mi SW 8.1 mph - 0.00 in Snow Light Snow
5:53 AM 9.0 °F -3.2 °F 5.0 °F 84% 30.42 in 6.0 mi SW 8.1 mph - 0.00 in Snow Light Snow
6:53 AM 10.0 °F -1.9 °F 5.0 °F 80% 30.43 in 8.0 mi SW 8.1 mph - 0.00 in   Overcast
7:37 AM 8.6 °F -2.6 °F 5.0 °F 85% 30.42 in 4.0 mi SSW 6.9 mph - N/A   Overcast
7:53 AM 9.0 °F -0.9 °F 3.9 °F 80% 30.47 in 3.0 mi South 5.8 mph - 0.00 in Snow Light Snow
8:05 AM 8.6 °F -1.3 °F 3.2 °F 79% 30.43 in 3.0 mi South 5.8 mph - 0.00 in Snow Light Snow
8:49 AM 8.6 °F -1.3 °F 5.0 °F 85% 30.44 in 1.8 mi SW 5.8 mph - 0.00 in Snow Light Snow
8:53 AM 9.0 °F -3.2 °F 5.0 °F 84% 30.48 in 2.0 mi SW 8.1 mph - 0.00 in Snow Light Snow
9:00 AM 8.6 °F -3.7 °F 5.0 °F 85% 30.44 in 1.5 mi SW 8.1 mph - 0.00 in Snow Light Snow
9:07 AM 8.6 °F -3.7 °F 5.0 °F 85% 30.44 in 2.0 mi SW 8.1 mph - 0.00 in Snow Light Snow
9:16 AM 8.6 °F -3.7 °F 5.0 °F 85% 30.45 in 2.0 mi SW 8.1 mph - 0.00 in Snow Light Snow
9:53 AM 10.0 °F -2.9 °F 6.1 °F 84% 30.49 in 2.5 mi SW 9.2 mph - 0.00 in Snow Light Snow
10:13 AM 10.4 °F -1.5 °F 6.8 °F 85% 30.46 in 3.0 mi WSW 8.1 mph - 0.00 in Snow Light Snow
10:24 AM 10.4 °F -1.5 °F 6.8 °F 85% 30.46 in 2.5 mi WSW 8.1 mph - 0.00 in Snow Light Snow
10:41 AM 10.4 °F -2.4 °F 6.8 °F 85% 30.46 in 3.0 mi West 9.2 mph - 0.00 in Snow Light Snow
10:53 AM 10.9 °F -2.6 °F 7.0 °F 84% 30.50 in 3.0 mi WSW 10.4 mph - 0.00 in Snow Light Snow
11:53 AM 12.0 °F -0.4 °F 8.1 °F 84% 30.50 in 9.0 mi West 9.2 mph - 0.00 in   Overcast
12:30 PM 14.0 °F 0.5 °F 10.4 °F 86% 30.46 in 2.0 mi West 11.5 mph - 0.00 in Snow Light Snow
12:40 PM 14.0 °F 0.5 °F 8.6 °F 79% 30.45 in 3.0 mi West 11.5 mph - 0.00 in Snow Light Snow
12:53 PM 14.0 °F 3.9 °F 10.0 °F 84% 30.49 in 4.0 mi West 6.9 mph - 0.00 in Snow Light Snow
1:00 PM 14.0 °F 2.9 °F 8.6 °F 79% 30.45 in 1.8 mi North 8.1 mph - 0.00 in Snow Light Snow
1:11 PM 15.8 °F 4.2 °F 8.6 °F 73% 30.45 in 2.0 mi North 9.2 mph - 0.00 in Snow Light Snow
1:16 PM 14.0 °F 2.0 °F 8.6 °F 79% 30.45 in 3.0 mi North 9.2 mph - 0.00 in Snow Light Snow
1:24 PM 14.0 °F 2.0 °F 8.6 °F 79% 30.44 in 7.0 mi North 9.2 mph - 0.00 in Snow Light Snow
1:53 PM 14.0 °F 1.2 °F 9.0 °F 80% 30.48 in 10.0 mi North 10.4 mph - 0.00 in   Overcast
2:13 PM 14.0 °F 2.9 °F 8.6 °F 79% 30.45 in 10.0 mi North 8.1 mph - N/A   Scattered Clouds
2:53 PM 12.9 °F 0.7 °F 7.0 °F 77% 30.49 in 10.0 mi North 9.2 mph - N/A   Scattered Clouds
3:53 PM 12.9 °F 1.6 °F 6.1 °F 74% 30.50 in 10.0 mi North 8.1 mph - N/A   Mostly Cloudy
4:53 PM 10.9 °F 2.9 °F 5.0 °F 77% 30.51 in 10.0 mi North 4.6 mph - N/A   Partly Cloudy
5:53 PM 5.0 °F -4.1 °F 1.9 °F 87% 30.52 in 10.0 mi North 4.6 mph - N/A   Clear
6:53 PM 3.9 °F -5.3 °F 1.0 °F 88% 30.53 in 10.0 mi NNE 4.6 mph - N/A   Clear
7:53 PM 3.0 °F -4.4 °F 1.0 °F 91% 30.53 in 10.0 mi NE 3.5 mph - N/A   Clear
8:53 PM 3.0 °F - -0.0 °F 87% 30.52 in 10.0 mi Calm Calm - N/A   Clear
9:53 PM 6.1 °F -0.9 °F 1.9 °F 83% 30.52 in 10.0 mi ENE 3.5 mph - N/A   Clear
10:53 PM 6.1 °F - 3.0 °F 87% 30.51 in 10.0 mi Calm Calm - N/A   Clear
11:53 PM 5.0 °F - 1.0 °F 84% 30.50 in 10.0 mi Calm Calm - N/A   Clear